This is the latest recevied weather packets stored in our database for station/object K7TUS-6. If no packets are shown the sender has not sent any weather packets the latest 10 day(s).
| Time | Temp. | Humidity | Pressure | Rain* | Wind** | Luminosity | Snow |
|---|---|---|---|---|---|---|---|
| 1777853406 | 17.78° C | 1% | 982.9 hPa | - | - | - | - |
| 1777853105 | 17.78° C | 1% | 983.5 hPa | - | - | - | - |
| 1777852805 | 18.89° C | 1% | 982.8 hPa | - | - | - | - |
| 1777852504 | 19.44° C | 1% | 983.7 hPa | - | - | - | - |
| 1777852203 | 20° C | 1% | 984 hPa | - | - | - | - |
| 1777851903 | 20.56° C | 1% | 984 hPa | - | - | - | - |
| 1777851608 | 20.56° C | 1% | 984 hPa | - | - | - | - |
| 1777851307 | 20.56° C | 1% | 984 hPa | - | - | - | - |
| 1777851007 | 20.56° C | 1% | 983.1 hPa | - | - | - | - |
| 1777850706 | 20.56° C | 1% | 982.8 hPa | - | - | - | - |
| 1777850106 | 19.44° C | 1% | 984.2 hPa | - | - | - | - |
| 1777849805 | 19.44° C | 1% | 984.3 hPa | - | - | - | - |
| 1777849504 | 20° C | 1% | 984.3 hPa | - | - | - | - |
| 1777849204 | 19.44° C | 1% | 984.4 hPa | - | - | - | - |
| 1777848903 | 20° C | 100% | 984.5 hPa | - | - | - | - |
| 1777848609 | 19.44° C | 2% | 984.5 hPa | - | - | - | - |
| 1777848308 | 19.44° C | 100% | 984 hPa | - | - | - | - |
| 1777848007 | 20.56° C | 3% | 984.7 hPa | - | - | - | - |
| 1777847707 | 20.56° C | 3% | 984.3 hPa | - | - | - | - |
| 1777847406 | 20° C | 3% | 984 hPa | - | - | - | - |
| 1777847105 | 20° C | 5% | 983.5 hPa | - | - | - | - |
| 1777846805 | 18.89° C | 6% | 984.9 hPa | - | - | - | - |
| 1777846504 | 19.44° C | 7% | 984.7 hPa | - | - | - | - |
| 1777846204 | 18.33° C | 8% | 984.2 hPa | - | - | - | - |
| 1777845903 | 17.78° C | 10% | 984.6 hPa | - | - | - | - |
* Rain since midnight (hover to see other rain measurements)
** Current wind speed in m/s (hover to see current wind gust speed)